RH
18 16 17 18 18 17 19 21 21 21 23 25 27 28 33 35 34 34 31 33 34 49 60 57 63 60 60 65 76 78 82 84 83 76 74 80 81 82 84 87 84 84 76 65 56 53 55
16 14 16 16 15 15 16 19 19 21 23 25 26 30 28 33 34 32 30 35 36 48 54 63 66 59 66 78 74 77 78 81 80 76 76 81 75 71 82 81 85 79 84 72 65 57 46
13 11 15 15 14 13 13 14 18 20 21 26 29 27 29 28 31 31 28 34 36 44 53 60 65 64 63 70 71 78 78 77 73 80 77 77 74 76 82 78 82 86 87 76 62 55 44
10 11 13 13 12 12 12 12 13 15 21 24 30 33 31 27 28 25 25 32 34 44 47 55 63 66 57 63 71 76 77 78 70 82 81 71 74 74 77 76 83 85 83 93 50 49 42
10 11 11 11 12 12 12 11 12 13 16 22 27 34 32 27 26 27 24 30 31 36 43 49 54 65 56 58 62 74 76 80 83 78 79 78 79 83 80 86 86 84 86 67 45 43 57
10 11 12 11 12 13 12 12 12 12 13 19 23 30 34 26 26 27 25 29 28 36 38 44 49 56 48 53 57 64 71 76 81 82 85 89 87 90 90 92 91 92 78 55 50 46 62
12 12 13 13 13 14 14 14 13 13 13 14 23 28 33 26 26 26 25 28 26 34 37 43 46 52 49 49 52 58 65 66 69 76 80 80 82 96 78 74 55 44 52 42 39 43 72
15 15 15 15 15 16 16 15 14 15 15 14 20 27 32 26 26 28 26 27 26 29 36 39 42 44 44 51 53 48 52 64 69 76 69 61 67 54 59 54 51 41 40 40 40 50 62
19 19 18 18 18 17 16 17 19 22 23 17 18 27 33 30 28 30 29 29 28 35 45 37 38 42 42 45 50 43 46 54 63 64 71 64 53 58 44 50 52 44 42 45 46 47 61
22 22 21 20 18 17 17 22 27 30 29 22 17 26 32 32 38 32 32 30 30 40 67 36 37 39 40 43 41 39 41 47 50 59 67 59 53 50 47 51 50 47 42 40 44 50 76
21 22 22 20 19 17 19 28 32 35 33 26 18 26 31 31 29 36 39 30 32 48 56 32 37 36 38 42 40 37 42 44 48 48 48 53 59 60 53 53 50 47 44 44 48 58 66
19 21 20 19 18 16 23 33 36 38 36 29 20 26 29 33 33 28 28 30 43 66 44 46 39 44 45 37 37 36 40 42 44 46 47 50 47 52 55 55 53 45 40 50 56 65 78
16 20 20 18 17 15 27 37 38 40 37 32 22 26 27 30 35 31 36 46 74 56 39 42 50 50 52 44 40 50 52 59 69 60 70 54 49 49 50 51 40 41 56 83 74 81 72
13 17 21 19 16 14 28 39 40 41 39 35 23 27 28 28 34 40 48 51 33 42 57 49 52 52 46 42 36 49 50 67 55 60 84 71 51 44 46 50 52 54 54 76 65 70 66
9 15 20 21 18 14 27 41 41 42 41 36 28 28 28 34 38 49 59 67 55 57 53 59 52 44 44 40 43 42 56 59 56 57 60 60 37 42 53 45 47 42 59 44 65 68 68
4 10 17 21 19 15 28 42 42 43 42 37 30 31 31 34 47 57 56 60 58 56 53 57 55 46 47 44 44 47 52 50 56 55 55 55 55 42 42 46 48 40 44 61 81 59 65
5 5 11 19 21 18 30 42 43 44 44 37 31 38 36 35 55 42 64 61 59 50 50 61 55 55 47 43 43 51 50 49 55 55 57 51 56 43 38 44 50 53 52 50 58 76 72
8 5 7 15 22 20 33 44 45 46 45 36 29 39 38 38 53 65 56 51 48 51 53 57 54 52 48 42 41 44 47 48 54 57 55 53 58 70 39 46 48 50 48 47 67 47 57
9 8 6 12 22 22 34 45 48 49 47 41 33 36 46 37 40 52 54 54 53 52 54 52 55 49 42 45 38 41 38 49 50 54 40 46 57 70 39 44 50 49 45 47 55 60 48
14 11 9 13 22 25 32 47 51 52 50 42 38 60 42 41 46 47 49 48 49 51 51 46 47 44 46 45 42 36 37 47 50 50 51 50 55 58 58 39 50 45 48 48 49 68 36
25 17 11 14 24 30 38 50 54 56 53 46 38 49 44 50 46 46 46 46 46 48 50 48 46 48 48 47 43 41 39 40 51 53 54 42 41 47 47 47 40 43 43 51 54 46 45
40 32 20 24 32 35 42 55 61 62 57 50 37 46 51 47 48 48 50 46 54 45 52 50 50 43 50 49 44 43 45 46 45 47 53 55 57 58 58 41 48 45 43 43 52 56 57
67 42 50 61 60 52 51 58 69 68 62 52 43 36 34 41 58 56 53 45 48 45 42 44 48 47 48 49 49 50 49 50 49 51 57 63 64 68 60 62 64 48 53 59 46 40 46
84 80 77 85 87 82 76 67 73 74 68 59 44 36 42 47 67 60 45 48 45 48 44 48 47 47 50 51 51 55 58 59 59 57 59 66 62 76 82 62 48 33 39 46 44 41 45
92 99 99 96 93 95 91 85 78 82 77 68 58 42 34 58 55 52 46 47 46 49 49 49 50 49 52 49 55 54 61 55 62 62 65 66 72 72 81 77 46 38 41 40 40 34 44
90 94 99 99 95 100 100 95 91 90 89 77 68 54 40 41 52 40 47 48 58 60 61 54 57 59 55 65 65 51 53 49 58 70 66 73 72 70 82 67 46 31 35 34 34 44 32
92 91 96 98 97 95 98 100 98 97 99 88 80 72 58 53 51 44 50 53 50 58 62 62 60 59 59 74 68 72 62 50 52 63 81 81 84 83 82 79 65 45 34 34 39 38 32
91 92 94 97 94 90 91 99 98 95 100 100 89 82 74 72 67 59 54 49 54 53 61 59 60 65 73 71 71 72 78 63 57 51 66 66 81 86 85 82 69 40 37 40 35 33 28
100 100 98 98 98 90 89 100 100 97 99 100 100 93 85 84 76 72 73 70 59 62 52 56 55 61 56 70 79 80 76 80 66 61 57 58 51 61 61 59 40 36 33 29 32 34 32
Wind_Speed
8 9 10 13 13 14 14 13 9 7 7 5 5 4 4 2 2 6 12 16 12 13 14 10 9 12 8 6 7 8 10 8 6 2 1 7 5 6 5 2 3 1 6 10 19 24 20
6 7 9 11 13 14 15 15 13 8 7 7 6 7 7 7 6 6 9 13 11 10 13 9 10 8 11 5 11 9 9 8 5 2 4 6 5 10 1 4 2 1 6 16 21 9 12
6 7 9 10 12 13 15 16 16 12 8 8 8 7 10 10 10 7 7 11 10 11 10 10 8 9 6 8 10 8 7 9 6 2 2 7 7 9 5 2 1 6 5 6 11 6 6
5 6 8 10 11 13 15 16 17 16 12 9 9 9 9 12 12 10 7 8 12 9 10 9 9 6 3 13 11 7 6 5 7 1 2 1 4 5 2 2 2 5 7 4 6 9 4
5 6 8 10 12 13 15 16 17 18 17 11 9 10 10 9 12 10 9 7 13 7 11 6 9 4 4 11 12 9 7 5 4 4 6 2 3 2 3 2 0 3 3 4 1 8 4
4 6 8 9 11 13 14 16 17 19 20 15 9 11 11 8 8 9 8 7 9 2 10 3 8 3 7 12 13 8 5 5 4 1 3 3 4 3 1 1 2 4 1 3 3 4 3
4 5 6 8 10 12 14 15 17 19 20 18 11 11 12 7 4 6 6 5 3 1 5 5 2 2 8 10 6 8 7 3 3 3 2 5 2 4 7 9 6 4 4 2 2 4 5
4 6 7 9 10 11 13 15 17 19 21 20 13 11 11 7 1 4 4 3 1 1 1 3 4 7 8 9 6 7 9 3 3 3 4 3 3 4 5 5 7 2 3 1 2 3 4
5 6 7 9 10 11 13 14 16 19 21 21 14 10 10 5 1 2 3 2 1 1 1 3 7 6 6 7 5 7 7 5 2 5 3 1 4 8 3 6 7 3 1 3 3 3 6
7 7 7 9 10 11 13 14 16 19 21 22 15 9 8 3 1 1 2 2 1 3 4 6 4 3 6 7 4 9 6 3 3 3 4 3 8 4 5 4 4 2 4 1 4 3 4
8 9 9 9 10 11 12 14 17 19 20 21 15 8 8 3 1 1 1 1 1 2 5 4 5 5 9 2 8 7 5 2 2 4 4 5 8 6 4 2 2 4 3 4 4 4 4
8 10 10 10 10 10 11 13 16 18 20 21 14 7 8 4 1 1 3 3 3 6 3 5 3 6 6 2 3 7 5 4 2 3 2 2 4 2 3 4 2 5 3 6 4 3 3
9 10 11 11 10 10 10 12 15 17 19 21 13 5 8 4 2 2 4 4 5 5 2 5 3 4 2 3 5 6 5 5 4 5 5 6 4 5 2 4 4 6 6 3 3 3 4
11 11 11 12 12 10 10 11 13 15 18 21 12 3 8 5 2 1 3 4 6 3 5 3 3 3 3 3 1 6 3 6 2 3 2 3 7 3 4 3 0 4 4 4 2 1 3
13 13 12 12 13 12 11 11 12 14 17 19 12 3 8 5 2 1 1 5 6 6 2 4 4 2 4 3 1 3 2 2 2 3 2 2 4 1 2 1 3 1 2 2 5 1 2
16 16 15 14 13 12 11 11 11 12 15 17 11 4 5 4 2 1 3 3 3 3 2 1 2 0 1 4 3 3 2 2 2 1 1 1 4 1 3 1 3 2 5 3 3 2 3
20 19 18 16 15 13 12 11 11 11 13 15 7 3 3 5 3 1 2 4 3 4 2 3 2 3 3 2 1 2 2 2 1 3 1 2 2 5 2 2 3 4 2 4 3 4 4
23 21 21 19 17 15 13 11 10 10 11 11 4 1 3 6 1 2 2 4 2 3 3 2 2 3 3 1 2 1 2 3 1 1 1 1 3 4 4 2 0 1 1 2 3 2 1
27 24 24 23 20 17 14 12 11 9 9 10 7 2 3 4 0 2 3 3 3 4 4 3 3 5 2 3 2 3 2 0 1 2 2 0 1 3 7 4 1 2 1 2 3 3 4
31 28 26 25 23 20 17 14 11 9 8 8 3 1 2 1 1 3 2 3 3 4 4 5 3 1 1 2 4 3 2 1 1 0 1 1 1 4 5 3 1 4 2 3 4 1 1
33 31 29 28 26 22 19 16 13 10 7 5 3 2 2 2 2 2 2 2 3 3 4 6 2 5 5 3 1 3 2 3 1 2 2 2 2 2 6 7 3 4 6 4 6 4 4
36 33 31 30 27 25 21 18 14 12 9 8 4 4 2 3 3 2 2 4 6 2 5 4 4 2 6 4 3 3 1 2 3 1 1 1 3 3 4 0 2 5 7 7 5 4 8
38 36 32 31 28 26 23 20 16 13 11 7 8 7 3 2 1 3 4 4 3 3 4 2 6 2 3 5 4 3 5 4 1 1 1 0 0 2 4 4 7 6 5 7 4 4 5
40 37 34 33 29 26 23 21 18 16 14 14 12 8 6 3 4 5 3 5 4 4 3 2 4 3 2 1 4 4 4 5 5 4 3 2 1 1 4 5 3 4 3 5 6 5 8
41 38 35 35 31 29 25 22 21 18 16 15 14 12 8 3 6 4 9 5 2 3 3 4 6 5 3 1 2 3 2 1 0 1 3 3 3 1 0 2 7 1 2 4 3 5 7
43 40 38 37 33 30 27 24 22 20 19 17 15 15 8 4 7 6 4 5 4 3 3 4 4 5 3 2 2 3 4 3 2 1 2 3 2 2 2 0 4 2 2 2 2 5 3
43 40 39 38 34 31 29 27 24 22 22 19 15 15 11 5 6 9 5 5 6 4 2 2 3 3 4 2 2 4 4 3 3 4 4 2 1 4 3 3 8 5 3 3 2 5 4
43 42 40 39 35 31 31 30 27 25 25 21 20 18 16 7 7 9 11 9 6 5 4 4 3 2 2 2 3 3 3 3 1 3 5 6 6 4 2 2 7 8 5 5 4 4 6
16 47 46 42 40 37 35 34 31 28 28 24 22 19 18 13 6 7 15 15 14 10 6 9 2 3 5 3 1 1 3 1 3 3 1 3 5 4 8 5 3 14 5 10 3 5 6
Wind_Direction
42 42 40 38 32 29 26 19 7 359 353 316 273 268 253 251 314 345 354 358 1 4 6 18 12 12 14 30 1 358 15 357 338 334 224 216 182 186 173 242 267 233 282 292 250 262 275
40 38 41 37 33 30 26 20 18 359 346 338 297 271 263 255 268 309 343 356 357 358 8 2 8 13 31 40 356 351 357 4 0 268 262 229 229 213 149 199 240 311 303 269 273 274 275
38 26 35 35 28 28 27 22 22 13 345 333 328 296 269 261 260 276 317 346 348 352 355 3 353 5 5 2 0 4 358 17 10 67 249 206 230 186 183 215 233 165 282 293 254 246 246
31 30 23 25 24 22 24 21 15 14 356 328 327 323 298 267 260 263 280 325 348 335 342 6 2 343 336 3 358 8 360 6 26 1 165 324 205 199 257 310 180 194 134 218 255 175 229
26 17 19 15 15 17 15 15 11 10 4 346 326 335 320 289 255 255 262 295 335 328 341 332 1 4 4 354 357 7 1 353 345 44 81 348 141 53 334 359 53 338 163 191 264 179 139
7 9 11 9 6 9 10 9 8 7 6 359 335 334 334 312 260 244 251 286 328 6 1 358 358 328 357 340 343 345 343 338 331 116 173 76 47 357 306 248 239 195 163 245 163 184 58
346 355 357 1 359 1 5 4 5 4 3 0 344 337 338 326 275 230 241 287 315 259 33 71 9 322 313 351 339 7 5 316 292 243 251 184 149 218 187 218 283 253 194 190 243 161 99
336 338 344 348 352 352 357 359 1 1 2 360 351 342 343 335 284 206 221 243 293 240 1 341 327 307 308 323 321 15 359 349 354 319 310 2 282 275 240 220 204 162 128 245 4 100 90
316 324 333 338 340 344 348 354 356 359 359 358 353 346 344 346 80 183 210 219 224 202 85 310 327 307 317 314 303 334 349 318 290 357 354 133 278 313 30 26 22 46 116 192 153 129 46
302 309 323 328 333 336 340 348 352 355 356 356 353 350 347 329 338 202 197 180 162 166 70 306 356 350 334 325 296 335 347 355 329 316 343 300 312 345 17 61 20 76 339 215 139 92 157
295 302 311 319 327 330 335 341 346 350 353 355 351 350 352 338 289 204 188 233 166 167 46 276 297 332 327 352 310 359 337 327 318 301 77 285 337 358 13 345 28 250 313 133 104 76 83
284 295 303 312 319 322 327 335 340 345 349 351 349 350 358 340 332 168 153 142 135 44 275 334 300 347 16 358 304 313 1 352 319 332 344 291 297 4 292 291 223 272 73 48 57 88 42
279 287 296 302 308 314 320 329 334 340 347 349 347 339 2 349 338 165 152 136 32 97 306 305 324 350 351 293 331 32 9 15 33 38 352 333 336 310 43 339 358 53 51 12 5 8 220
267 275 286 293 299 305 313 323 330 335 342 347 346 332 3 355 10 157 160 56 69 258 257 336 324 318 316 19 335 5 32 8 9 69 67 77 348 353 348 95 288 16 120 143 208 193 266
266 266 270 281 290 297 304 316 323 331 338 345 345 277 6 353 1 204 221 49 198 197 275 314 317 61 323 337 290 46 48 286 273 14 81 20 282 321 263 213 143 162 40 179 110 81 49
265 268 267 271 278 285 293 306 316 325 334 341 341 289 331 341 330 300 72 214 213 225 167 117 303 87 280 302 358 22 325 203 261 109 112 343 322 194 293 239 229 246 146 82 5 152 263
264 263 265 267 270 273 279 293 305 318 328 337 333 289 321 341 326 349 125 227 236 235 220 163 246 293 246 279 235 281 250 282 236 313 153 60 97 293 7 346 15 10 20 53 134 147 177
257 260 263 264 264 264 267 278 291 306 322 333 328 2 298 341 337 38 152 194 211 211 213 288 265 212 244 233 271 270 278 226 205 218 268 214 152 268 253 340 55 162 172 115 115 287 282
257 253 257 259 259 259 256 262 275 294 315 332 319 254 256 327 343 305 274 266 230 185 203 187 261 218 171 256 270 221 229 216 7 16 4 12 298 339 343 6 8 335 269 101 86 71 218
258 255 250 250 253 252 250 248 257 274 301 318 300 1 215 230 197 160 203 247 256 218 225 197 230 143 316 251 218 289 271 160 181 173 145 98 242 197 207 231 209 289 200 165 139 90 264
255 254 247 243 245 244 242 240 243 255 277 289 246 236 209 267 277 228 180 216 228 249 225 212 232 201 184 295 268 234 273 319 161 114 112 106 251 209 261 251 238 240 236 218 199 208 178
255 251 245 238 238 240 235 231 237 242 247 251 243 186 189 262 259 177 208 241 210 230 169 234 220 186 180 209 230 298 197 220 251 12 92 26 272 353 288 136 181 266 246 229 228 242 259
252 249 239 230 231 231 231 226 228 232 233 235 224 223 205 219 144 123 224 230 248 182 216 233 205 183 216 225 219 250 264 278 243 209 266 187 165 30 271 355 318 297 231 187 195 196 170
247 245 237 227 227 227 224 221 222 224 226 229 237 210 171 251 180 201 217 205 232 229 255 223 202 185 221 220 288 264 251 251 238 237 187 159 126 127 272 340 0 250 146 181 205 229 212
242 239 234 223 223 225 222 219 218 224 226 226 230 212 186 228 213 261 230 215 236 241 245 238 216 219 214 284 43 343 335 3 211 80 178 180 133 235 279 262 287 3 208 172 173 288 198
235 235 232 221 218 223 224 224 222 224 225 224 226 218 205 154 237 209 179 199 185 219 314 230 211 204 196 95 116 213 231 226 228 212 94 86 90 139 145 211 258 267 197 167 147 298 187
230 230 227 220 220 223 228 231 227 227 226 220 226 221 213 219 233 185 192 191 171 164 205 243 181 173 177 116 180 194 244 191 227 196 179 164 110 194 185 246 286 240 170 142 102 239 172
225 226 225 225 223 225 231 235 233 227 226 221 226 225 217 227 246 225 224 201 178 180 160 174 117 203 85 172 177 224 205 236 262 199 180 174 156 200 121 186 279 165 107 171 229 184 194
153 225 223 226 227 225 229 235 231 227 224 219 225 228 224 233 249 247 238 236 233 235 221 199 235 166 176 107 220 125 246 232 199 257 47 243 201 188 191 218 279 198 230 229 280 271 259